Orbital Elements at Epoch 2459200.5 (2020-Dec-17.0) TDB
Reference: JPL 32 (heliocentric ecliptic J2000)
Element | Value | Uncertainty (1-sigma) | Units |
e | .1717950120973069 | 4.4695e-08 | |
a | 2.335195383867092 | 1.1267e-08 | au |
q | 1.934020464646069 | 1.0104e-07 | au |
i | 23.510520859661 | 5.2405e-06 | deg |
node | 174.1568526037783 | 8.6876e-06 | deg |
peri | 53.77999670842338 | 1.6005e-05 | deg |
M | 98.51504516260734 | 1.1804e-05 | deg |
tp | 2458843.816251524158 (2019-Dec-26.31625152) | 4.2697e-05 | TDB |
period | 1303.416643004711 3.57 | 9.4332e-06 2.583e-08 | d yr |
n | .2761971791077542 | 1.9989e-09 | deg/d |
Q | 2.736370303088114 | 1.3203e-08 | au |
|
| | Orbit Determination Parameters
Additional Information
|